Location: *
(17.3280°S, 114.7300°W)
Time: 07:34:13
(UTC+00:00)

GPS 2-14 Rocket1 - Pass Details

Date: 05 August 2020
Orbit: 476 x 541 km, 20.7° (Epoch: 20 September)

Event Time Altitude Azimuth Distance (km) Brightness Sun altitude
Exits shadow 12:34:31 37° 344° (NNW) 754 3.4 -21.2°
Drops below altitude 10° 12:38:00 10° 50° (NE) 1,647 6.1 -20.4°
Sets 12:40:19 0° 59° (ENE) 2,532 7.5 -19.9°
